[[{"header":{"parameterUnit":"m.s-1","parameterCategory":1,"la1":30.2991,"la2":30.254,"lo1":-89.0895,"lo2":-89.0444,"dy":0.0017,"dx":0.0017,"nx":28,"ny":28,"refTime":"2025-04-19T03:00:00:Z","depth":0,"parameterNumber":2,"parameterNumberName":"U-component_of_WINDS"},"data":[0,0,0,0,0,0,0,0,0,0,0,0,0,0,0,0,0,0,0,0,0,0,0,0,0,0,0,0,0,0,0,0,0,0,0,0,0,0,0,0,0,0,0,0,0,0,0,0,0,0,0,0,0,0,0,0,0,0,-4.6148,-4.6149,0,-4.6194,-4.6194,-4.6195,-4.6113,-4.611,-4.6108,-4.6105,-4.6152,-4.6156,-4.616,0,0,0,0,0,0,0,0,0,0,0,0,0,-4.5993,-4.5997,-4.6148,-4.6149,-4.6149,-4.6194,-4.6194,-4.6195,-4.6114,-4.611,-4.6107,-4.6104,-4.6151,-4.6156,-4.616,0,0,0,0,0,0,0,0,0,0,0,0,0,-4.6052,-4.5998,-4.6148,-4.6114,-4.6112,-4.6193,-4.6194,-4.6195,-4.6114,-4.611,-4.6106,-4.6102,-4.615,-4.6155,-4.6161,-4.6278,0,0,-4.6178,-4.6181,0,0,0,0,0,0,0,0,-4.6049,-4.6058,-4.6119,-4.6117,-4.6114,-4.6143,-4.6157,-4.6223,-4.6115,-4.6113,-4.6105,-4.61,-4.6153,-4.6158,-4.6175,-4.628,-4.6282,-4.6179,-4.6182,-4.6185,-4.6186,0,0,0,0,0,0,0,-4.6045,-4.6055,-4.6166,-4.612,-4.6117,-4.6097,-4.6101,-4.6169,-4.6156,-4.6113,-4.6107,-4.6114,-4.6151,-4.617,-4.6176,-4.6283,-4.6179,-4.6184,-4.6187,-4.6189,-4.6488,-4.6492,0,0,0,0,0,0,-4.6045,-4.6052,-4.6165,-4.6167,-4.607,-4.6103,-4.6108,-4.6138,-4.6155,-4.6153,-4.6117,-4.611,-4.6162,-4.6169,-4.6177,-4.6316,-4.6185,-4.619,-4.6193,-4.6483,-4.6489,-4.6493,0,0,0,0,0,0,-4.6042,-4.6055,-4.6163,-4.6108,-4.6121,-4.611,-4.6145,-4.6141,-4.616,-4.6158,-4.6155,-4.6139,-4.616,-4.6169,-4.6254,-4.6316,-4.6193,-4.6198,-4.6478,-4.6485,-4.6491,-4.6593,0,0,0,0,0,0,-4.6038,-4.6055,-4.6098,-4.611,-4.6124,-4.6238,-4.6149,-4.6145,-4.617,-4.6161,-4.6178,-4.6177,-4.6157,-4.6246,-4.626,-4.6322,-4.6202,-4.6472,-4.6481,-4.6489,-4.6584,-4.6603,-4.6618,0,0,0,0,0,-4.6032,-4.6125,-4.6101,-4.6115,-4.6178,-4.6242,-4.625,-4.6225,-4.6176,-4.622,-4.6219,-4.6176,-4.6308,-4.6255,-4.627,-4.6335,-4.6468,-4.6478,-4.6488,-4.6576,-4.6599,-4.6618,0,0,0,0,0,0,-4.6121,-4.6126,-4.6099,-4.6199,-4.6221,-4.6228,-4.6282,-4.625,-4.6286,-4.6275,-4.6244,-4.6249,-4.634,-4.6346,-4.6287,-4.645,-4.638,-4.6393,-4.6442,-4.6463,-4.648,-4.6475,-4.6207,0,0,0,0,0,-4.6152,-4.6203,-4.6205,-4.6293,-4.6305,-4.6293,-4.6319,-4.6299,-4.632,-4.6329,-4.6333,-4.6356,-4.6402,-4.6433,-4.6476,-4.6586,-4.6588,-4.6638,-4.6655,-4.6669,-4.6681,-4.674,-4.6762,-4.6527,-4.6527,-4.6526,0,0,-4.6217,-4.6226,-4.626,-4.6311,-4.6325,-4.6379,-4.63,-4.636,-4.64,-4.6338,-4.6417,-4.6422,-4.6446,-4.6544,-4.6587,-4.6551,-4.6747,-4.6682,-4.6693,-4.6697,-4.6752,-4.6775,-4.6794,-4.6534,-4.6532,-4.6531,0,0,-4.6362,-4.6374,-4.6449,-4.6465,-4.6488,-4.648,-4.6498,-4.6511,-4.6512,-4.6592,-4.6546,-4.6594,-4.6675,-4.6693,-4.6713,-4.6869,-4.6831,-4.6884,-4.6972,-4.703,-4.7049,-4.7065,-4.712,-4.714,-4.6896,-4.6896,-4.6896,0,-4.6439,-4.6518,-4.6491,-4.6555,-4.6579,-4.6526,-4.6601,-4.6619,-4.6655,-4.6673,-4.6634,-4.6735,-4.6747,-4.6848,-4.6887,-4.6905,-4.6925,-4.688,-4.7048,-4.7064,-4.7079,-4.7131,-4.7152,-4.6902,-4.6902,-4.6901,-4.6901,0,-4.6612,-4.6667,-4.6725,-4.6761,-4.6792,-4.6861,-4.6846,-4.6881,-4.6859,-4.6855,-4.6938,-4.6951,-4.6996,-4.7019,-4.6998,-4.7118,-4.7096,-4.7053,-4.6981,-4.7108,-4.7156,-4.7176,-4.6911,-4.6909,-4.6907,-4.6906,0,0,-4.681,-4.6833,-4.6854,-4.6871,-4.6894,-4.6936,-4.7005,-4.7048,-4.7079,-4.7107,-4.7163,-4.7234,-4.7195,-4.7218,-4.7199,-4.725,-4.7373,-4.7201,-4.7201,-4.7232,-4.7506,-4.7537,-4.756,-4.7349,-4.7353,-4.7356,-4.7504,0,-4.6953,-4.7069,-4.7049,-4.7162,-4.7213,-4.7165,-4.7225,-4.7246,-4.7245,-4.7289,-4.7289,-4.7339,-4.7284,-4.7298,-4.7347,-4.7347,-4.7427,-4.7337,-4.7401,-4.7403,-4.7394,-4.7585,-4.7617,-4.7756,-4.7523,-4.7526,-4.7528,0,-4.7135,-4.717,-4.7288,-4.7304,-4.7325,-4.7378,-4.7417,-4.746,-4.7484,-4.748,-4.7508,-4.748,-4.7549,-4.7479,-4.7573,-4.7512,-4.7538,-4.7543,-4.7548,-4.7551,-4.7471,-4.7592,-4.78,-4.782,-4.7558,-4.7555,-4.7553,0,-4.7267,-4.7343,-4.7424,-4.744,-4.7461,-4.75,-4.751,-4.753,-4.7559,-4.7594,-4.7612,-4.7655,-4.7678,-4.7713,-4.7698,-4.7648,-4.7796,-4.7724,-4.7794,-4.7794,-4.7825,-4.7822,-4.8038,-4.7845,-4.7845,-4.7844,-4.7844,0,-4.7427,-4.7501,-4.7483,-4.7533,-4.7615,-4.7592,-4.7674,-4.7679,-4.7698,-4.7748,-4.7711,-4.7759,-4.7737,-4.7785,-4.7774,-4.7854,-4.7865,-4.7864,-4.786,-4.7866,-4.7866,-4.788,-4.787,-4.785,-4.7849,-4.7847,-4.7846,0,-4.7587,-4.7578,-4.7663,-4.7677,-4.7682,-4.7742,-4.7754,-4.7801,-4.7798,-4.7863,-4.7877,-4.7873,-4.7927,-4.7916,-4.7975,-4.7968,-4.8068,-4.8053,-4.806,-4.8056,-4.8125,-4.8119,-4.8356,-4.8386,-4.8175,-4.8177,-4.8179,0,-4.7689,-4.7745,-4.7765,-4.7796,-4.781,-4.786,-4.7889,-4.787,-4.7902,-4.7935,-4.7978,-4.8028,-4.8067,-4.8156,-4.8159,-4.8204,-4.8189,-4.8269,-4.8195,-4.82,-4.8189,-4.8185,-4.819,-4.8283,-4.8285,-4.8287,-4.8289,0,-4.7871,-4.7864,-4.7907,-4.7949,-4.7985,-4.8017,-4.8046,-4.8074,-4.8057,-4.8095,-4.815,-4.818,-4.8241,-4.8292,-4.8335,-4.8347,-4.8316,-4.8313,-4.8331,-4.8337,-4.8338,-4.8337,-4.8098,-4.8307,-4.8305,-4.8304,-4.8303,-4.8302,-4.8003,-4.8051,-4.8073,-4.8122,-4.8143,-4.8171,-4.8216,-4.8219,-4.8264,-4.8312,-4.8299,-4.8361,-4.8386,-4.844,-4.8457,-4.8506,-4.8476,-4.8503,-4.851,-4.8516,-4.8524,-4.8332,-4.8514,-4.8514,-4.8513,-4.8513,-4.8513,0,-4.8182,-4.8195,-4.824,-4.8282,-4.8322,-4.829,-4.8321,-4.8356,-4.8411,-4.8436,-4.8476,-4.8539,-4.8589,-4.8597,-4.8645,-4.8683,-4.8669,-4.8696,-4.8691,-4.8695,-4.8549,-4.8527,-4.8705,-4.8705,-4.8705,-4.8705,-4.8705,-4.8705,-4.8279,-4.8358,-4.8355,-4.8444,-4.8456,-4.8516,-4.8537,-4.8563,-4.8583,-4.8656,-4.8697,-4.8702,-4.8721,-4.877,-4.8815,-4.8816,-4.8834,-4.8866,-4.8862,-4.8724,-4.8705,-4.8686,-4.8666,-4.8871,-4.8871,-4.9003,-4.9005,-4.9006]},{"header":{"parameterUnit":"m.s-1","parameterCategory":1,"la1":30.2991,"la2":30.254,"lo1":-89.0895,"lo2":-89.0444,"dy":0.0017,"dx":0.0017,"nx":28,"ny":28,"refTime":"2025-04-19T03:00:00:Z","depth":0,"parameterNumber":3,"parameterNumberName":"V-component_of_WINDS"},"data":[0,0,0,0,0,0,0,0,0,0,0,0,0,0,0,0,0,0,0,0,0,0,0,0,0,0,0,0,0,0,0,0,0,0,0,0,0,0,0,0,0,0,0,0,0,0,0,0,0,0,0,0,0,0,0,0,0,0,2.2048,2.2049,0,2.2095,2.2096,2.2096,2.2126,2.2126,2.2126,2.2126,2.2171,2.2172,2.2173,0,0,0,0,0,0,0,0,0,0,0,0,0,2.1982,2.1983,2.2048,2.2049,2.2049,2.2095,2.2096,2.2096,2.2126,2.2126,2.2126,2.2126,2.2171,2.2172,2.2173,0,0,0,0,0,0,0,0,0,0,0,0,0,2.2018,2.1984,2.2048,2.207,2.2072,2.2095,2.2096,2.2096,2.2126,2.2126,2.2126,2.2126,2.217,2.2172,2.2173,2.2177,0,0,2.2178,2.2179,0,0,0,0,0,0,0,0,2.2016,2.202,2.2066,2.2068,2.2071,2.2105,2.2089,2.2123,2.2125,2.2105,2.2126,2.2126,2.2149,2.2152,2.216,2.2179,2.2181,2.2178,2.2179,2.218,2.218,0,0,0,0,0,0,0,2.2013,2.2018,2.2067,2.2067,2.207,2.2076,2.2082,2.2095,2.2125,2.2107,2.2109,2.2115,2.215,2.2158,2.2161,2.2182,2.2178,2.2179,2.218,2.2181,2.2208,2.2208,0,0,0,0,0,0,2.2008,2.2016,2.2065,2.2068,2.2044,2.2077,2.2083,2.2094,2.2125,2.213,2.2114,2.2116,2.2156,2.2159,2.2163,2.217,2.218,2.2181,2.2182,2.2208,2.2208,2.2208,0,0,0,0,0,0,2.2006,2.2012,2.2063,2.2043,2.205,2.2078,2.209,2.2094,2.2103,2.213,2.2135,2.2118,2.2156,2.2161,2.2174,2.2172,2.2182,2.2183,2.2208,2.2208,2.2208,2.2185,0,0,0,0,0,0,2.2004,2.2011,2.2014,2.2043,2.2051,2.2074,2.2089,2.2095,2.2106,2.2108,2.2135,2.2139,2.2157,2.2171,2.2175,2.2175,2.2184,2.2209,2.2208,2.2208,2.2186,2.2184,2.2182,0,0,0,0,0,2.2002,2.2004,2.2013,2.2019,2.2055,2.2074,2.2079,2.2099,2.2106,2.2108,2.2126,2.2138,2.2172,2.2173,2.2177,2.2177,2.2209,2.2208,2.2208,2.2187,2.2184,2.2182,0,0,0,0,0,0,2.1973,2.2008,2.2019,2.2031,2.205,2.2079,2.2082,2.2096,2.2112,2.2113,2.2137,2.2143,2.2154,2.2167,2.2167,2.2183,2.2192,2.2192,2.2174,2.2172,2.217,2.2167,2.2186,0,0,0,0,0,2.1968,2.1982,2.2012,2.202,2.2028,2.2054,2.2063,2.2078,2.2097,2.2105,2.2123,2.2141,2.2156,2.2164,2.2179,2.2188,2.2194,2.219,2.2188,2.2187,2.2187,2.2193,2.2191,2.2206,2.2206,2.2206,0,0,2.1958,2.1979,2.1986,2.2014,2.203,2.2043,2.206,2.2073,2.2083,2.2106,2.212,2.2135,2.2156,2.2167,2.2173,2.2178,2.2184,2.2186,2.2184,2.2185,2.2192,2.2191,2.2189,2.2206,2.2206,2.2206,0,0,2.1946,2.1964,2.1973,2.1989,2.2013,2.203,2.2032,2.206,2.2071,2.2086,2.2104,2.2115,2.214,2.2155,2.2165,2.216,2.2173,2.2164,2.2154,2.216,2.2159,2.2158,2.2156,2.2155,2.2164,2.2164,2.2164,0,2.193,2.1952,2.1975,2.1988,2.1999,2.2023,2.2032,2.2046,2.2073,2.2081,2.2086,2.2118,2.2134,2.215,2.2149,2.2156,2.2159,2.2161,2.2157,2.2157,2.2156,2.2155,2.2154,2.2163,2.2163,2.2163,2.2163,0,2.1931,2.1945,2.195,2.1977,2.199,2.2,2.2025,2.2034,2.2048,2.2064,2.2079,2.2099,2.2119,2.2124,2.2136,2.2141,2.2143,2.2153,2.2162,2.2153,2.2152,2.2152,2.2161,2.2162,2.2162,2.2163,0,0,2.1902,2.1943,2.1944,2.1957,2.1986,2.1998,2.2009,2.203,2.2038,2.2056,2.2066,2.2087,2.2096,2.2108,2.2123,2.2128,2.2124,2.2137,2.2138,2.2134,2.213,2.2123,2.2122,2.2132,2.2132,2.2132,2.2128,0,2.1894,2.1918,2.194,2.1954,2.1968,2.1991,2.2001,2.202,2.2035,2.2049,2.2066,2.2081,2.2091,2.2099,2.2105,2.2123,2.2123,2.2123,2.2141,2.2142,2.2135,2.2122,2.2114,2.2109,2.2128,2.2128,2.2128,0,2.1889,2.1908,2.1925,2.1954,2.196,2.1969,2.199,2.2003,2.2024,2.2035,2.2049,2.2065,2.2078,2.2087,2.2105,2.2104,2.2113,2.2123,2.2123,2.2126,2.2134,2.2124,2.2108,2.2108,2.2128,2.2128,2.2128,0,2.1867,2.1896,2.191,2.1921,2.1954,2.196,2.1974,2.1996,2.2007,2.2025,2.2033,2.2052,2.2062,2.2076,2.2096,2.2101,2.2112,2.2122,2.2121,2.2121,2.2123,2.2122,2.2108,2.2128,2.2128,2.2128,2.2128,0,2.1856,2.1866,2.1901,2.1909,2.192,2.1945,2.1955,2.1971,2.1991,2.2003,2.2023,2.2033,2.206,2.2073,2.2089,2.2102,2.2106,2.2115,2.2119,2.2113,2.2112,2.2119,2.212,2.2128,2.2128,2.2128,2.2128,0,2.1833,2.1857,2.1874,2.1905,2.1913,2.192,2.1946,2.1955,2.1972,2.1987,2.1991,2.2018,2.2035,2.2057,2.208,2.2091,2.2102,2.2108,2.2095,2.2097,2.2096,2.2095,2.2086,2.2086,2.2105,2.2105,2.2105,0,2.1825,2.1833,2.1865,2.1875,2.1889,2.1905,2.1917,2.1941,2.1953,2.1979,2.1984,2.2003,2.202,2.2045,2.2066,2.2085,2.2092,2.2087,2.2094,2.2088,2.2092,2.2091,2.2092,2.2085,2.2085,2.2084,2.2084,0,2.1808,2.182,2.1837,2.1859,2.1873,2.189,2.1909,2.1915,2.1944,2.1956,2.1974,2.1987,2.2012,2.203,2.2051,2.2065,2.2079,2.2082,2.2083,2.2077,2.2069,2.2073,2.209,2.2082,2.2082,2.2082,2.2082,2.2082,2.1793,2.1801,2.1826,2.1844,2.1861,2.1878,2.1888,2.1907,2.1923,2.1946,2.196,2.1977,2.1999,2.2029,2.2043,2.2056,2.2062,2.2063,2.2063,2.2063,2.2061,2.2067,2.206,2.206,2.206,2.206,2.2061,0,2.1777,2.1795,2.1811,2.1837,2.1852,2.1865,2.1887,2.1898,2.1914,2.1933,2.1949,2.197,2.1988,2.2011,2.2031,2.2037,2.2045,2.2042,2.2041,2.2044,2.2055,2.2053,2.2036,2.2036,2.2036,2.2036,2.2036,2.2036,2.1771,2.1786,2.1801,2.1825,2.1842,2.186,2.1871,2.1887,2.1903,2.1926,2.1942,2.1957,2.1978,2.1999,2.2016,2.2022,2.2028,2.2024,2.2032,2.2041,2.2044,2.2046,2.2043,2.2025,2.2025,2.202,2.202,2.202]}]]